Regional Weather Roundup
Issued by NWS

Home | Current Version | Previous Version | Text Only | Print | Product List | Glossary Off
Versions: 1 2 3 4 5 6 7 8 9 10 11 12 13 14 15 16 17 18 19 20 21 22 23 24 25 26 27 28 29 30 31 32 33 34 35 36 37 38 39 40 41 42 43 44 45 46 47 48 49 50

000
ASUS43 KMKX 210500
RWRWI

WISCONSIN REGIONAL WEATHER ROUNDUP
NATIONAL WEATHER SERVICE MILWAUKEE/SULLIVAN WI
1200 AM CDT MON AUG 21 2017

NOTE: "FAIR" INDICATES FEW OR NO CLOUDS BELOW 12,000 FEET WITH NO
SIGNIFICANT WEATHER AND/OR OBSTRUCTIONS TO VISIBILITY.

WIZ001-002-006>008-014>016-023>028-210600-
NORTHWEST WISCONSIN

CITY           SKY/WX    TMP DP  RH WIND       PRES   REMARKS
SUPERIOR ARPT    N/A     54  53  99 S5        30.01R
ASHLAND        PTCLDY    58  57  97 S5        30.02R
HAYWARD        PTCLDY    59  57  93 CALM      30.05R FOG
SIREN          CLEAR     60  59  96 CALM      30.05R
CUMBERLAND     PTCLDY    63  61  94 CALM      30.05S
RICE LAKE      PTCLDY    68  64  87 NW5       30.05S
CHETEK           N/A     70  66  87 N3        30.03F
LADYSMITH      CLOUDY    71  65  83 NW5       30.05R
EAU CLAIRE     MOCLDY    70  67  90 N3        30.00S
MENOMONIE      PTCLDY    72  66  83 CALM      30.02S
NEW RICHMOND   PTCLDY    64  62  93 CALM      30.04S
OSCEOLA        CLEAR     62  62 100 CALM      30.07R
$$

WIZ003>005-009-010-017-018-210600-
NORTH CENTRAL WISCONSIN

CITY           SKY/WX    TMP DP  RH WIND       PRES   REMARKS
MANITOWISH WTR CLOUDY    67  65  93 NW3       30.04S
ARBOR VITAE    CLOUDY    72  66  82 N7        30.04R
WOODRUFF       CLOUDY    72  66  82 N7        30.04R
RHINELANDER    CLOUDY    69  68  96 W5        30.05R
EAGLE RIVER    MOCLDY    68  67  98 W3        30.04R
LAND O LAKES   CLOUDY    69  62  79 NW3       30.05R
PHILLIPS       CLOUDY    69  66  91 CALM      30.04R
TOMAHAWK         N/A     69  65  86 CALM      30.04S
MEDFORD        CLEAR     67  65  91 CALM      30.04R
MERRILL        NOT AVBL
$$

WIZ029-030-035-036-043>047-210600-
CENTRAL WISCONSIN

CITY           SKY/WX    TMP DP  RH WIND       PRES   REMARKS
WAUSAU         PTCLDY    70  67  90 SW6       30.02S
MOSINEE        PTCLDY    68  66  94 S7        30.04S
MARSHFIELD     CLOUDY    68  65  90 SW5       30.03S
STEVENS POINT  CLOUDY    69  67  93 SW5       30.04S
WAUPACA        CLOUDY    70  68  95 CALM      30.03S
WAUTOMA        MOCLDY    65  64  97 CALM      30.05R
WISC RAPIDS    CLOUDY    70  68  93 CALM      30.04S
CAMP DOUGLAS   CLOUDY    70  67  88 S9        30.01F
$$

WIZ011>013-019>022-031-037>040-048>050-210600-
NORTHEAST WISCONSIN

CITY           SKY/WX    TMP DP  RH WIND       PRES   REMARKS
ANTIGO         PTCLDY    68  66  92 W7        30.05S
SHAWANO        PTCLDY    74  67  79 SW3       30.01S
OCONTO         CLOUDY    72  67  84 W5        30.00S
STURGEON BAY   PTCLDY    73  68  84 SW10      30.02R
GREEN BAY      CLOUDY    72  69  90 SW6       30.03R
MANITOWOC      NOT AVBL
APPLETON       CLOUDY    70  68  94 SW8       30.03S
CLINTONVILLE   MOCLDY    70  66  88 CALM      30.02S
OSHKOSH        CLEAR     71  66  84 S8        30.03F
$$

WIZ032>034-041-042-053>061-210600-
SOUTHWEST WISCONSIN

CITY           SKY/WX    TMP DP  RH WIND       PRES   REMARKS
LA CROSSE      CLEAR     74  68  81 CALM      30.01R
SPARTA         PTCLDY    68  65  91 SW3       30.02F
VIROQUA        CLEAR     68  66  93 CALM      30.04F
BOSCOBEL       CLEAR     63  62  97 CALM      30.05R FOG
PRAIRIE DU CHI CLEAR     66  63  92 E3        30.03F
PLATTEVILLE    CLEAR     66  66 100 NE3       30.06S
$$

WIZ056-057-062-063-064-067-068-210600-
SOUTH CENTRAL WISCONSIN

CITY           SKY/WX    TMP DP  RH WIND       PRES   REMARKS
REEDSBURG      CLEAR     66  66 100 CALM      30.05S
BARABOO/DELLS  CLEAR     65  63  93 CALM      30.05S
LONE ROCK      NOT AVBL
MINERAL POINT  CLEAR     68  68 100 CALM      30.06F
MADISON        CLEAR     66  65  96 CALM      30.04F FOG
MIDDLETON      CLEAR     64  64 100 CALM      30.06S
WATERTOWN      CLEAR     64  64 100 CALM      30.04F FOG
MONROE         CLEAR     70  64  83 N3        30.06R
JANESVILLE     CLEAR     68  68 100 NW3       30.05R FOG
$$

WIZ051-052-058>065-066-070>072-210600-
SOUTHEAST WISCONSIN

CITY           SKY/WX    TMP DP  RH WIND       PRES   REMARKS
MILWAUKEE      PTCLDY    71  67  87 CALM      30.04R
WAUKESHA       FOG       64  64 100 CALM      30.06S VSB 3/4
MILWAUKEE/TIMM CLEAR     68  61  77 CALM      30.05S
RACINE         CLOUDY    69  67  93 CALM      30.06R
KENOSHA        CLOUDY    71  67  87 E3        30.05R
FOND DU LAC    CLEAR     67  64  90 CALM      30.05S
SHEBOYGAN      CLEAR     66  66 100 SW3       30.04S
WEST BEND      CLEAR     64  64 100 CALM      30.05S
JUNEAU         CLEAR     65  64  96 CALM      30.06F FOG
$$

LSZ147-162-210600-
LAKE SUPERIOR

STATION/POSITION TIME  TEMP    WIND        PRES    WAVE
                       AIR SEA DIR/SP/G            HT/PER
                 (UTC) (F)     (DEG/KT/KT) (MB)    (FT/S)
W MID LAKE BUOY  0350   64 60  270/ 10/ 12 1014.2R   1/ 4
DEVILS ISLAND    0400   67     270/ 14/ 15 1015.2R
SAXON HARBOR     0440   64     190/  4/  5 1015.6S
$$

LMZ867-665-643>646-210600-
LAKE MICHIGAN

STATION/POSITION TIME  TEMP    WIND        PRES    WAVE
                       AIR SEA DIR/SP/G            HT/PER
                 (UTC) (F)     (DEG/KT/KT) (MB)    (FT/S)
S GREEN BAY BUOY 0430   73 71  220/ 10/ 14 1015.8R
N MID LAKE BUOY  0350   69 67  200/ 16/ 17 1015.3R   4/ 5
NORTHPORT PIER   0440   74     220/  4/ 13 1015.6R
KEWAUNEE LAKESHO 0430   74     240/  7/ 11 1015.5R
SHEBOYGAN LAKESH 0400   72     210/  6/  6 1016.6R
PORT WASHINGTON  0440   72      CALM  /  2 1017.9R
ATWATER BUOY     0309   72 70  180/  6/  6 1017.2R
MILWAUKEE LAKESH 0430   75     360/  2/  3   N/A
S MID LAKE BUOY  0350   74 72  180/  8/  8 1017.1R   0
KENOSHA   LAKESH 0400   76      CALM  /  2 1016.6
$$

TC  - TEMPERATURE IN CELSIUS
VSB - VISIBILITY IN STATUTE MILES
WCI - WIND CHILL INDEX
HX  - HEAT INDEX





USA.gov is the U.S. government's official web portal to all federal, state and local government web resources and services.